Location: Omaha
(41.2590°N, 95.9380°W)
Time: 12:03:15
(UTC-05:00)

Tiangong 2 - Pass Details

Date: 14 October 2017
Orbit: 388 x 392 km, 42.8° (Epoch: 17 October)

Event Time Altitude Azimuth Distance (km) Brightness Sun altitude
Exits shadow 05:30:51 34° 69° (ENE) 665 2.8 -24.0°
Drops below altitude 10° 05:32:49 10° 77° (ENE) 1,422 5.0 -23.6°
Sets 05:34:54 0° 80° (E) 2,279 6.5 -23.2°
